Location: Newark
(51.0500°N, 12.4500°E)
Time: 02:01:05
(UTC+00:00)

Tiros 1 - Pass Details

Date: 18 February 2020
Orbit: 630 x 664 km, 48.4° (Epoch: 06 April)

Event Time Altitude Azimuth Distance (km) Brightness Sun altitude
Rises 04:20:53 0° 245° (WSW) 2,915 - -19.1°
Reaches altitude 10° 04:23:15 10° 240° (WSW) 2,006 - -18.7°
Exits shadow 04:25:44 30° 225° (SW) 1,139 8.0 -18.3°
Maximum altitude 04:27:43 51° 165° (SSE) 790 7.6 -18.0°
Drops below altitude 10° 04:32:12 10° 90° (E) 2,011 11.0 -17.3°
Sets 04:34:34 0° 85° (E) 2,922 12.3 -17.0°
